period_start,C,m1,H,J0,J1,J2,J3,J4,J5,JA,JB,JC,JD,JJ,JK,JN,#
2018-04-20 00:02:20,0.02,2.23,0.00,25.17,28.10,30.83,13.79,48.00,1014.33,2021.63,2584.11,2510.40,2868.40,599.52,589.84,26.38,0000 0000 0000 0000 000000
2018-04-20 00:07:21,0.12,2.23,0.00,25.25,28.11,30.85,13.73,47.96,1014.48,2021.42,2582.41,2509.18,2866.88,599.70,590.01,26.43,0000 0000 0000 0000 000000
2018-04-20 00:12:22,0.11,2.24,0.00,25.30,28.12,30.86,13.81,47.96,1014.40,2021.51,2580.78,2508.05,2865.56,600.27,590.44,26.48,0000 0000 0000 0000 000000
2018-04-20 00:17:23,0.11,2.25,0.00,25.36,28.12,30.87,13.69,48.02,1014.56,2021.64,2579.02,2506.92,2864.14,599.88,589.84,26.53,0000 0000 0000 0000 000000
2018-04-20 00:22:24,0.12,2.25,0.00,25.41,28.14,30.87,13.75,47.99,1014.65,2021.71,2577.29,2505.78,2862.70,600.04,590.13,26.58,0000 0000 0000 0000 000000
2018-04-20 00:27:26,0.06,2.26,0.00,25.43,28.15,30.89,13.71,47.91,1014.66,2021.63,2575.94,2504.74,2861.47,599.69,589.81,26.63,0000 0000 0000 0000 000000
2018-04-20 00:32:27,0.06,2.26,0.00,25.44,28.17,30.91,13.73,48.00,1014.66,2021.38,2574.67,2503.71,2860.17,599.82,589.83,26.68,0000 0000 0000 0000 000000
2018-04-20 00:37:28,0.08,2.26,0.00,25.49,28.18,30.94,13.74,47.98,1014.66,2021.17,2573.25,2502.54,2858.88,600.07,590.01,26.73,0000 0000 0000 0000 000000
2018-04-20 00:42:29,0.10,2.27,0.00,25.51,28.20,30.96,13.78,47.98,1014.66,2021.12,2571.72,2501.44,2857.55,600.08,589.85,26.78,0000 0000 0000 0000 000000
2018-04-20 00:47:30,0.08,2.27,0.00,25.53,28.22,30.97,13.81,47.98,1014.66,2021.03,2570.14,2500.21,2856.13,600.14,589.98,26.83,0000 0000 0000 0000 000000
2018-04-20 00:52:31,0.10,2.28,0.00,25.59,28.24,31.00,13.82,47.97,1014.67,2021.02,2568.83,2499.12,2854.87,600.06,589.80,26.88,0000 0000 0000 0000 000000
2018-04-20 00:57:32,0.09,2.28,0.00,25.63,28.26,31.01,13.79,47.96,1014.69,2021.00,2567.44,2498.01,2853.57,599.79,589.42,26.93,0000 0000 0000 0000 000000
2018-04-20 01:02:33,0.12,2.29,0.00,25.64,28.29,31.04,13.75,48.06,1014.69,2021.00,2565.74,2496.80,2852.23,599.91,589.67,26.98,0000 0000 0000 0000 000000
2018-04-20 01:07:34,0.08,2.29,0.00,25.69,28.31,31.06,13.71,48.08,1014.68,2021.00,2564.47,2495.80,2850.85,599.54,589.07,27.03,0000 0000 0000 0000 000000
2018-04-20 01:12:35,0.10,2.30,0.00,25.76,28.34,31.08,13.69,47.83,1014.73,2020.97,2562.90,2494.71,2849.50,599.91,589.34,27.08,0000 0000 0000 0000 000000
2018-04-20 01:17:36,0.11,2.30,0.00,25.79,28.36,31.11,13.73,47.93,1014.75,2020.95,2561.18,2493.51,2847.99,599.86,589.26,27.13,0000 0000 0000 0000 000000
2018-04-20 01:22:38,0.10,2.31,0.00,25.82,28.39,31.14,13.71,47.87,1014.79,2020.91,2559.45,2492.20,2846.42,600.06,589.44,27.18,0000 0000 0000 0000 000000
2018-04-20 01:27:39,0.07,2.31,0.00,25.91,28.42,31.16,13.75,48.01,1014.92,2020.44,2557.68,2490.76,2844.71,599.90,589.16,27.23,0000 0000 0000 0000 000000
2018-04-20 01:32:40,0.09,2.32,0.00,25.94,28.45,31.20,13.73,47.93,1015.14,2020.16,2555.86,2489.51,2843.19,599.67,589.05,27.28,0000 0000 0000 0000 000000
2018-04-20 01:37:41,0.10,2.32,0.00,25.95,28.47,31.22,13.70,47.86,1015.15,2020.09,2554.26,2488.36,2841.71,599.90,589.18,27.33,0000 0000 0000 0000 000000
2018-04-20 01:42:42,0.10,2.33,0.00,26.02,28.50,31.24,13.72,48.02,1015.15,2020.01,2552.66,2487.13,2840.30,599.84,588.94,27.39,0000 0000 0000 0000 000000
2018-04-20 01:47:43,0.12,2.33,0.00,26.09,28.53,31.29,13.78,47.90,1015.15,2020.00,2550.98,2485.85,2838.81,600.31,589.27,27.44,0000 0000 0000 0000 000000
2018-04-20 01:52:44,0.11,2.34,0.00,26.14,28.56,31.32,13.77,47.88,1015.15,2020.00,2549.27,2484.66,2837.32,599.96,588.87,27.49,0000 0000 0000 0000 000000
2018-04-20 01:57:46,0.11,2.35,0.00,26.15,28.59,31.35,13.71,47.96,1015.16,2019.99,2547.67,2483.51,2835.83,599.70,588.67,27.54,0000 0000 0000 0000 000000
2018-04-20 02:02:47,0.09,2.35,0.00,26.21,28.62,31.38,13.74,47.89,1015.16,2019.98,2546.24,2482.33,2834.50,600.05,588.76,27.59,0000 0000 0000 0000 000000
2018-04-20 02:07:48,0.05,2.35,0.00,26.32,28.65,31.41,13.72,47.90,1015.27,2019.84,2545.28,2481.32,2833.43,600.05,588.62,27.64,0000 0000 0000 0000 000000
2018-04-20 02:12:50,0.06,2.36,0.00,26.37,28.69,31.44,13.69,47.81,1015.26,2019.34,2543.49,2480.05,2831.79,600.03,588.58,27.69,0000 0000 0000 0000 000000
2018-04-20 02:17:51,0.10,2.36,0.00,26.40,28.72,31.48,13.67,47.75,1015.36,2019.05,2541.89,2478.76,2830.45,600.17,588.64,27.74,0000 0000 0000 0000 000000
2018-04-20 02:22:52,0.10,2.37,0.00,26.44,28.76,31.52,13.58,47.75,1015.46,2019.01,2540.41,2477.61,2828.95,599.64,588.26,27.79,0000 0000 0000 0000 000000
2018-04-20 02:27:53,0.11,2.37,0.00,26.52,28.80,31.55,13.66,47.91,1015.54,2019.00,2538.82,2476.46,2827.57,600.08,588.55,27.84,0000 0000 0000 0000 000000
2018-04-20 02:32:55,0.09,2.38,0.00,26.56,28.84,31.59,13.73,47.88,1015.62,2019.00,2537.38,2475.26,2826.19,600.12,588.50,27.89,0000 0000 0000 0000 000000
2018-04-20 02:37:56,0.10,2.38,0.00,26.60,28.88,31.64,13.64,47.85,1015.64,2018.93,2535.84,2474.04,2824.77,599.70,588.07,27.94,0000 0000 0000 0000 000000
2018-04-20 02:42:57,0.07,2.39,0.00,26.60,28.92,31.67,13.69,47.85,1015.64,2018.63,2534.34,2472.86,2823.38,600.12,588.38,27.99,0000 0000 0000 0000 000000
2018-04-20 02:47:59,0.05,2.39,0.00,26.68,28.96,31.70,13.73,47.83,1015.64,2018.14,2532.93,2471.69,2822.00,600.10,588.35,28.04,0000 0000 0000 0000 000000
2018-04-20 02:53:00,0.11,2.40,0.00,26.79,29.00,31.74,13.62,47.73,1015.64,2018.01,2531.36,2470.46,2820.56,600.16,588.03,28.09,0000 0000 0000 0000 000000
2018-04-20 02:58:01,0.10,2.40,0.00,26.79,29.04,31.79,13.74,47.90,1015.65,2018.00,2529.79,2469.27,2819.15,600.17,588.18,28.14,0000 0000 0000 0000 000000
2018-04-20 03:03:03,0.11,2.41,0.00,26.83,29.08,31.83,13.62,47.72,1015.65,2018.00,2528.19,2468.00,2817.63,599.63,587.61,28.19,0000 0000 0000 0000 000000
2018-04-20 03:08:04,0.12,2.41,0.00,26.83,29.13,31.87,13.72,47.73,1015.65,2017.95,2526.20,2466.69,2816.04,600.14,588.01,28.24,0000 0000 0000 0000 000000
2018-04-20 03:13:05,0.08,2.42,0.00,26.96,29.17,31.91,13.68,47.71,1015.66,2017.74,2524.53,2465.45,2814.59,599.72,587.35,28.29,0000 0000 0000 0000 000000
2018-04-20 03:18:06,0.05,2.42,0.00,27.04,29.21,31.94,13.64,47.83,1015.66,2017.12,2522.90,2464.22,2813.08,599.95,587.42,28.34,0000 0000 0000 0000 000000
2018-04-20 03:23:08,0.09,2.42,0.00,27.06,29.25,31.99,13.66,47.67,1015.70,2017.03,2521.48,2462.99,2811.72,599.56,586.94,28.39,0000 0000 0000 0000 000000
2018-04-20 03:28:09,0.11,2.43,0.00,27.11,29.30,32.03,13.65,47.77,1016.02,2017.00,2519.99,2461.67,2810.24,599.87,587.37,28.44,0000 0000 0000 0000 000000
2018-04-20 03:33:10,0.09,2.43,0.00,27.06,29.34,32.07,13.70,47.88,1016.08,2016.99,2518.65,2460.59,2808.91,600.01,587.67,28.49,0000 0000 0000 0000 000000
2018-04-20 03:38:11,0.08,2.44,0.00,27.18,29.39,32.10,13.66,47.75,1016.12,2016.83,2517.12,2459.37,2807.50,599.79,587.37,28.54,0000 0000 0000 0000 000000
2018-04-20 03:43:13,0.04,2.44,0.00,27.26,29.43,32.15,13.66,47.85,1016.13,2016.24,2515.62,2458.09,2806.01,599.81,587.05,28.59,0000 0000 0000 0000 000000
2018-04-20 03:48:14,0.12,2.45,0.00,27.33,29.47,32.19,13.63,47.78,1016.13,2016.01,2513.80,2456.70,2804.46,599.75,586.90,28.64,0000 0000 0000 0000 000000
2018-04-20 03:53:16,0.10,2.45,0.00,27.38,29.52,32.23,13.62,47.77,1016.13,2016.00,2512.30,2455.53,2802.95,599.66,586.73,28.69,0000 0000 0000 0000 000000
2018-04-20 03:58:17,0.11,2.46,0.00,27.43,29.56,32.27,13.62,47.62,1016.14,2015.99,2510.69,2454.32,2801.49,599.88,586.87,28.74,0000 0000 0000 0000 000000
2018-04-20 04:03:19,0.09,2.47,0.00,27.45,29.61,32.32,13.61,47.69,1016.14,2015.97,2509.12,2453.12,2800.10,599.97,586.75,28.79,0000 0000 0000 0000 000000
2018-04-20 04:08:20,0.09,2.47,0.00,27.45,29.65,32.37,13.65,47.74,1016.16,2015.75,2507.45,2451.81,2798.57,600.23,587.17,28.84,0000 0000 0000 0000 000000
2018-04-20 04:13:21,0.05,2.47,0.00,27.59,29.70,32.40,13.67,47.86,1016.18,2015.13,2505.85,2450.54,2797.04,600.06,586.78,28.89,0000 0000 0000 0000 000000
2018-04-20 04:18:22,0.10,2.48,0.00,27.66,29.75,32.44,13.66,47.82,1016.17,2015.01,2504.32,2449.31,2795.58,600.02,586.59,28.94,0000 0000 0000 0000 000000
2018-04-20 04:23:23,0.13,2.48,0.00,27.71,29.79,32.49,13.60,47.71,1016.26,2014.99,2502.43,2447.89,2793.89,599.80,586.36,28.99,0000 0000 0000 0000 000000
2018-04-20 04:28:24,0.09,2.49,0.00,27.72,29.84,32.53,13.71,47.80,1016.52,2014.80,2500.96,2446.62,2792.46,600.35,587.10,29.04,0000 0000 0000 0000 000000
2018-04-20 04:33:25,0.04,2.49,0.00,27.77,29.89,32.59,13.60,47.69,1016.62,2014.21,2499.39,2445.34,2790.91,600.22,586.81,29.09,0000 0000 0000 0000 000000
2018-04-20 04:38:26,0.11,2.50,0.00,27.80,29.93,32.63,13.65,47.75,1016.62,2014.02,2497.66,2443.96,2789.39,600.07,586.54,29.14,0000 0000 0000 0000 000000
2018-04-20 04:43:28,0.12,2.50,0.00,27.85,29.98,32.67,13.69,47.75,1016.63,2014.00,2496.04,2442.66,2787.77,600.31,586.66,29.19,0000 0000 0000 0000 000000
2018-04-20 04:48:29,0.11,2.51,0.00,27.88,30.03,32.73,13.65,47.92,1016.68,2013.96,2494.36,2441.31,2786.16,599.85,586.18,29.24,0000 0000 0000 0000 000000
2018-04-20 04:53:30,0.08,2.51,0.00,27.93,30.07,32.77,13.60,47.73,1016.93,2013.63,2492.63,2439.87,2784.53,600.05,586.51,29.29,0000 0000 0000 0000 000000
2018-04-20 04:58:32,0.09,2.52,0.00,27.97,30.12,32.82,13.63,47.82,1016.96,2013.19,2490.91,2438.60,2783.01,599.94,586.37,29.34,0000 0000 0000 0000 000000
2018-04-20 05:03:33,0.10,2.52,0.00,28.03,30.17,32.85,13.67,47.75,1017.02,2013.01,2489.10,2437.24,2781.33,599.96,586.29,29.39,0000 0000 0000 0000 000000
2018-04-20 05:08:34,0.12,2.53,0.00,28.06,30.21,32.90,13.66,47.84,1017.10,2012.99,2487.55,2435.88,2779.77,600.23,586.61,29.44,0000 0000 0000 0000 000000
2018-04-20 05:13:36,0.11,2.53,0.00,28.10,30.26,32.94,13.64,47.71,1017.10,2012.96,2485.87,2434.60,2778.31,600.30,586.51,29.49,0000 0000 0000 0000 000000
2018-04-20 05:18:37,0.05,2.54,0.00,28.15,30.31,32.98,13.61,47.64,1017.11,2012.48,2484.15,2433.32,2776.68,600.11,586.21,29.54,0000 0000 0000 0000 000000
2018-04-20 05:23:38,0.08,2.54,0.00,28.20,30.35,33.03,13.67,47.74,1017.12,2012.08,2482.44,2431.99,2775.15,599.81,585.84,29.59,0000 0000 0000 0000 000000
2018-04-20 05:28:39,0.12,2.55,0.00,28.23,30.39,33.06,13.67,47.71,1017.12,2012.00,2480.82,2430.75,2773.62,600.30,586.27,29.64,0000 0000 0000 0000 000000
2018-04-20 05:33:41,0.13,2.55,0.00,28.28,30.43,33.10,13.67,47.59,1017.13,2012.00,2478.96,2429.37,2771.99,600.51,586.38,29.69,0000 0000 0000 0000 000000
2018-04-20 05:38:42,0.14,2.56,0.00,28.33,30.48,33.15,13.62,47.61,1017.16,2011.94,2476.89,2427.78,2770.18,600.03,585.88,29.74,0000 0000 0000 0000 000000
2018-04-20 05:43:43,0.08,2.57,0.00,28.35,30.51,33.19,13.65,47.63,1017.35,2011.58,2474.80,2426.30,2768.42,600.26,586.18,29.79,0000 0000 0000 0000 000000
2018-04-20 05:48:44,0.12,2.57,0.00,28.40,30.55,33.24,13.67,47.63,1017.50,2011.06,2472.90,2424.72,2766.67,600.28,586.29,29.84,0000 0000 0000 0000 000000
2018-04-20 05:53:45,0.15,2.58,0.00,28.42,30.59,33.28,13.59,47.58,1017.46,2011.00,2470.64,2423.09,2764.74,599.82,585.63,29.89,0000 0000 0000 0000 000000
2018-04-20 05:58:47,0.16,2.59,0.00,28.45,30.63,33.33,13.62,47.65,1017.56,2011.00,2468.22,2421.33,2762.72,599.86,585.60,29.94,0000 0000 0000 0000 000000
2018-04-20 06:03:48,0.16,2.59,0.00,28.51,30.67,33.36,13.59,47.63,1017.56,2010.95,2465.85,2419.65,2760.76,600.09,585.86,29.99,0000 0000 0000 0000 000000
2018-04-20 06:08:49,0.12,2.60,0.00,28.56,30.71,33.40,13.66,47.70,1017.56,2010.67,2463.51,2417.92,2758.74,600.25,585.76,30.04,0000 0000 0000 0000 000000
2018-04-20 06:13:50,0.11,2.61,0.00,28.60,30.75,33.44,13.64,47.69,1017.57,2010.09,2461.11,2416.20,2756.75,600.12,585.69,30.09,0000 0000 0000 0000 000000
2018-04-20 06:18:52,0.16,2.61,0.00,28.62,30.79,33.49,13.65,47.52,1017.55,2010.02,2458.74,2414.51,2754.73,600.39,585.88,30.15,0000 0000 0000 0000 000000
2018-04-20 06:23:53,0.16,2.62,0.00,28.68,30.84,33.53,13.65,47.60,1017.56,2010.00,2456.48,2412.75,2752.78,600.16,585.43,30.20,0000 0000 0000 0000 000000
2018-04-20 06:28:54,0.16,2.63,0.00,28.71,30.88,33.57,13.63,47.67,1017.59,2010.00,2454.11,2411.01,2750.87,599.80,585.12,30.25,0000 0000 0000 0000 000000
2018-04-20 06:33:56,0.15,2.64,0.00,28.73,30.92,33.61,13.58,47.51,1017.59,2009.92,2451.69,2409.27,2748.88,599.80,585.09,30.30,0000 0000 0000 0000 000000
2018-04-20 06:38:57,0.10,2.65,0.00,28.80,30.97,33.64,13.59,47.39,1017.59,2009.45,2449.43,2407.63,2747.05,600.35,585.56,30.35,0000 0000 0000 0000 000000
2018-04-20 06:43:58,0.13,2.65,0.00,28.83,31.01,33.68,13.63,47.52,1017.59,2009.06,2447.17,2405.91,2745.06,599.99,585.09,30.40,0000 0000 0000 0000 000000
2018-04-20 06:48:59,0.13,2.66,0.00,28.86,31.06,33.74,13.56,47.38,1017.60,2009.00,2445.08,2404.42,2743.30,600.22,585.17,30.45,0000 0000 0000 0000 000000
2018-04-20 06:54:00,0.15,2.67,0.00,28.93,31.10,33.77,13.60,47.46,1017.61,2009.00,2443.11,2402.87,2741.54,599.96,584.82,30.50,0000 0000 0000 0000 000000
2018-04-20 06:59:02,0.14,2.67,0.00,28.97,31.14,33.82,13.62,47.38,1017.61,2008.96,2440.99,2401.38,2739.70,599.76,584.71,30.55,0000 0000 0000 0000 000000
2018-04-20 07:04:03,0.09,2.68,0.00,29.00,31.19,33.85,13.61,47.55,1017.62,2008.61,2438.95,2399.75,2737.87,599.78,584.67,30.60,0000 0000 0000 0000 000000
2018-04-20 07:09:04,0.11,2.68,0.00,29.03,31.23,33.90,13.60,47.52,1017.80,2008.08,2436.75,2398.11,2736.06,600.18,585.00,30.65,0000 0000 0000 0000 000000
2018-04-20 07:14:06,0.14,2.69,0.00,29.08,31.27,33.94,13.55,47.52,1018.00,2008.01,2434.67,2396.56,2734.27,599.80,584.73,30.70,0000 0000 0000 0000 000000
2018-04-20 07:19:07,0.14,2.70,0.00,29.14,31.31,33.97,13.55,47.53,1018.08,2007.99,2432.71,2395.00,2732.50,599.75,584.55,30.75,0000 0000 0000 0000 000000
2018-04-20 07:24:08,0.15,2.71,0.00,29.16,31.36,34.01,13.61,47.48,1018.08,2007.97,2430.74,2393.41,2730.60,600.05,584.90,30.80,0000 0000 0000 0000 000000
2018-04-20 07:29:10,0.10,2.71,0.00,29.24,31.40,34.06,13.57,47.41,1018.08,2007.66,2428.62,2391.84,2728.80,599.89,584.56,30.85,0000 0000 0000 0000 000000
2018-04-20 07:34:11,0.10,2.72,0.00,29.28,31.44,34.10,13.55,47.44,1018.08,2007.14,2426.47,2390.21,2726.89,600.10,584.59,30.90,0000 0000 0000 0000 000000
2018-04-20 07:39:13,0.16,2.73,0.00,29.32,31.48,34.14,13.59,47.46,1018.09,2007.00,2424.03,2388.48,2724.82,599.99,584.54,30.95,0000 0000 0000 0000 000000
2018-04-20 07:44:14,0.16,2.73,0.00,29.37,31.52,34.19,13.65,47.48,1018.09,2007.00,2421.73,2386.77,2722.95,600.37,584.74,31.00,0000 0000 0000 0000 000000
2018-04-20 07:49:15,0.18,2.74,0.00,29.42,31.56,34.24,13.61,47.32,1018.09,2006.98,2419.14,2384.93,2720.78,600.03,584.24,31.05,0000 0000 0000 0000 000000
2018-04-20 07:54:17,0.18,2.75,0.00,29.45,31.60,34.28,13.61,47.48,1018.10,2006.81,2416.31,2382.92,2718.39,599.82,584.09,31.10,0000 0000 0000 0000 000000
2018-04-20 07:59:18,0.15,2.76,0.00,29.51,31.64,34.32,13.54,47.36,1018.22,2006.22,2413.10,2380.61,2715.79,600.12,584.35,31.15,0000 0000 0000 0000 000000
2018-04-20 08:04:19,0.20,2.77,0.00,29.58,31.68,34.36,13.50,47.24,1018.47,2006.01,2410.22,2378.43,2713.30,600.03,584.17,31.20,0000 0000 0000 0000 000000
2018-04-20 08:09:21,0.23,2.78,0.00,29.61,31.72,34.40,13.53,47.39,1018.56,2006.00,2407.03,2376.13,2710.64,599.66,583.78,31.25,0000 0000 0000 0000 000000
2018-04-20 08:14:22,0.22,2.79,0.00,29.66,31.76,34.45,13.59,47.40,1018.57,2005.97,2403.89,2373.83,2707.96,600.02,584.09,31.30,0000 0000 0000 0000 000000
2018-04-20 08:19:23,0.19,2.80,0.00,29.72,31.80,34.49,13.58,47.27,1018.57,2005.67,2400.64,2371.44,2705.24,600.25,584.08,31.35,0000 0000 0000 0000 000000
2018-04-20 08:24:24,0.18,2.81,0.00,29.71,31.85,34.54,13.63,47.36,1018.57,2005.11,2397.40,2369.08,2702.49,600.08,584.11,31.40,0000 0000 0000 0000 000000
2018-04-20 08:29:25,0.25,2.82,0.00,29.76,31.89,34.59,13.67,47.37,1018.57,2005.01,2393.87,2366.59,2699.55,600.07,583.93,31.45,0000 0000 0000 0000 000000
2018-04-20 08:34:26,0.30,2.84,0.00,29.78,31.93,34.64,13.59,47.38,1018.59,2005.00,2389.67,2363.63,2696.09,599.98,583.87,31.50,0000 0000 0000 0000 000000
2018-04-20 08:39:27,0.26,2.85,0.00,29.82,31.98,34.69,13.62,47.33,1018.61,2004.97,2385.64,2360.77,2692.78,600.13,583.83,31.55,0000 0000 0000 0000 000000
2018-04-20 08:44:29,0.22,2.87,0.00,29.85,32.02,34.73,13.57,47.34,1018.83,2004.86,2382.27,2358.33,2690.07,599.84,583.77,31.60,0000 0000 0000 0000 000000
2018-04-20 08:49:30,0.14,2.87,0.00,29.87,32.06,34.77,13.50,47.29,1019.01,2004.20,2379.04,2356.03,2687.50,599.82,583.79,31.65,0000 0000 0000 0000 000000
2018-04-20 08:54:31,0.21,2.88,0.00,29.91,32.11,34.81,13.59,47.25,1019.04,2004.02,2375.95,2353.85,2685.10,600.01,583.85,31.70,0000 0000 0000 0000 000000
2018-04-20 08:59:33,0.25,2.89,0.00,29.94,32.15,34.86,13.55,47.43,1019.06,2004.00,2372.31,2351.50,2682.37,600.08,583.87,31.75,0000 0000 0000 0000 000000
2018-04-20 09:04:34,0.48,2.91,0.00,29.96,32.19,34.89,13.57,47.28,1019.06,2003.98,2365.97,2347.48,2677.83,599.71,583.49,31.80,0000 0000 0000 0000 000000
2018-04-20 09:09:35,0.33,2.94,0.00,29.97,32.23,34.93,13.66,47.33,1019.06,2003.80,2359.79,2343.65,2673.53,600.30,584.01,31.85,0000 0000 0000 0000 000000
2018-04-20 09:14:37,0.22,2.95,0.00,30.00,32.27,34.97,13.52,47.34,1019.07,2003.25,2355.83,2340.88,2670.42,599.87,583.51,31.90,0000 0000 0000 0000 000000
2018-04-20 09:19:38,0.32,2.96,0.00,30.03,32.31,35.01,13.56,47.35,1019.07,2003.03,2351.26,2337.79,2666.93,600.14,583.65,31.95,0000 0000 0000 0000 000000
2018-04-20 09:24:40,0.32,2.98,0.00,30.03,32.35,35.05,13.63,47.26,1019.06,2003.00,2346.51,2334.58,2663.28,600.11,583.75,32.00,0000 0000 0000 0000 000000
2018-04-20 09:29:41,0.27,2.99,0.00,30.06,32.39,35.10,13.54,47.33,1019.08,2002.97,2342.58,2331.75,2660.06,599.92,583.47,32.05,0000 0000 0000 0000 000000
2018-04-20 09:34:42,0.22,3.01,0.00,30.07,32.42,35.13,13.57,47.33,1019.15,2002.79,2339.55,2329.23,2657.33,599.91,583.51,32.10,0000 0000 0000 0000 000000
2018-04-20 09:39:44,0.21,3.02,0.00,30.10,32.46,35.16,13.48,47.33,1019.46,2002.17,2335.64,2326.51,2654.16,599.67,583.35,32.15,0000 0000 0000 0000 000000
2018-04-20 09:44:45,0.26,3.03,0.00,30.11,32.49,35.21,13.60,47.29,1019.48,2002.01,2331.88,2323.93,2651.14,600.02,583.71,32.20,0000 0000 0000 0000 000000
2018-04-20 09:49:46,0.24,3.04,0.00,30.13,32.53,35.24,13.61,47.28,1019.53,2002.00,2328.41,2321.49,2648.34,600.01,583.79,32.25,0000 0000 0000 0000 000000
2018-04-20 09:54:47,0.24,3.05,0.00,30.17,32.56,35.27,13.57,47.43,1019.55,2002.00,2325.12,2319.20,2645.63,599.89,583.44,32.30,0000 0000 0000 0000 000000
2018-04-20 09:59:48,0.21,3.07,0.00,30.17,32.59,35.33,13.58,47.43,1019.55,2001.86,2321.93,2316.90,2643.00,600.05,583.50,32.36,0000 0000 0000 0000 000000
2018-04-20 10:04:50,0.16,3.07,0.00,30.18,32.62,35.35,13.58,47.40,1019.55,2001.38,2319.01,2314.65,2640.45,599.82,583.43,32.41,0000 0000 0000 0000 000000
2018-04-20 10:09:51,0.25,3.08,0.00,30.19,32.66,35.38,13.55,47.31,1019.55,2001.06,2315.53,2312.09,2637.49,599.99,583.50,32.46,0000 0000 0000 0000 000000
2018-04-20 10:14:52,0.30,3.10,0.00,30.22,32.69,35.42,13.53,47.27,1019.56,2001.00,2311.56,2309.25,2634.21,599.87,583.38,32.51,0000 0000 0000 0000 000000
2018-04-20 10:19:53,0.29,3.11,0.00,30.24,32.72,35.46,13.61,47.26,1019.57,2001.00,2307.51,2306.38,2630.91,599.88,583.38,32.56,0000 0000 0000 0000 000000
2018-04-20 10:24:54,0.29,3.13,0.00,30.25,32.75,35.50,13.54,47.18,1019.58,2000.97,2303.50,2303.48,2627.56,599.72,583.26,32.61,0000 0000 0000 0000 000000
2018-04-20 10:29:56,0.30,3.14,0.00,30.24,32.77,35.54,13.55,47.36,1019.65,2000.91,2299.50,2300.58,2624.12,599.73,583.24,32.66,0000 0000 0000 0000 000000
2018-04-20 10:34:57,0.28,3.16,0.00,30.24,32.80,35.57,13.55,47.25,1019.86,2000.60,2295.17,2297.56,2620.71,599.72,583.49,32.71,0000 0000 0000 0000 000000
2018-04-20 10:39:58,0.23,3.17,0.00,30.22,32.83,35.59,13.55,47.26,1020.01,2000.20,2291.41,2294.86,2617.59,599.68,583.55,32.76,0000 0000 0000 0000 000000
2018-04-20 10:44:59,0.21,3.18,0.00,30.22,32.86,35.63,13.59,47.28,1020.03,2000.06,2288.27,2292.61,2615.01,600.09,583.94,32.81,0000 0000 0000 0000 000000
2018-04-20 10:50:00,0.19,3.20,0.00,30.21,32.88,35.67,13.61,47.33,1020.03,2000.01,2285.69,2290.72,2612.84,600.18,584.03,32.86,0000 0000 0000 0000 000000
2018-04-20 10:55:01,0.17,3.20,0.00,30.22,32.91,35.70,13.64,47.22,1020.03,2000.00,2283.35,2288.96,2610.88,600.10,583.92,32.91,0000 0000 0000 0000 000000
2018-04-20 11:00:03,0.22,3.21,0.00,30.25,32.94,35.74,13.59,47.27,1020.03,2000.00,2280.75,2286.94,2608.63,600.04,583.81,32.96,0000 0000 0000 0000 000000
2018-04-20 11:05:04,0.25,3.23,0.00,30.29,32.97,35.77,13.61,47.24,1020.03,1999.99,2277.48,2284.60,2605.95,600.03,583.81,33.01,0000 0000 0000 0000 000000
2018-04-20 11:10:05,0.28,3.24,0.00,30.30,32.99,35.81,13.68,47.32,1020.03,1999.94,2273.67,2281.94,2602.80,600.31,583.95,33.06,0000 0000 0000 0000 000000
2018-04-20 11:15:06,0.21,3.25,0.00,30.30,33.01,35.83,13.62,47.33,1020.04,1999.60,2270.33,2279.35,2599.90,600.09,583.74,33.11,0000 0000 0000 0000 000000
2018-04-20 11:20:08,0.24,3.26,0.00,30.30,33.03,35.85,13.60,47.22,1020.05,1999.17,2266.69,2276.87,2596.97,600.26,583.93,33.16,0000 0000 0000 0000 000000
2018-04-20 11:25:09,0.27,3.28,0.00,30.27,33.05,35.88,13.59,47.22,1020.05,1999.08,2263.01,2274.31,2593.96,599.64,583.46,33.21,0000 0000 0000 0000 000000
2018-04-20 11:30:10,0.27,3.29,0.00,30.20,33.07,35.89,13.68,47.18,1020.05,1999.03,2259.30,2271.79,2590.93,599.92,583.78,33.27,0000 0000 0000 0000 000000
2018-04-20 11:35:11,0.22,3.30,0.00,30.14,33.08,35.89,13.50,47.27,1020.05,1999.03,2256.23,2269.57,2588.37,599.85,583.82,33.32,0000 0000 0000 0000 000000
2018-04-20 11:40:13,0.24,3.32,0.00,30.07,33.10,35.92,13.55,47.20,1020.11,1999.02,2253.22,2267.34,2585.86,599.84,584.03,33.37,0000 0000 0000 0000 000000
2018-04-20 11:45:14,0.23,3.33,0.00,30.01,33.10,35.93,13.72,47.30,1020.21,1999.00,2250.14,2264.99,2583.21,600.11,584.32,33.42,0000 0000 0000 0000 000000
2018-04-20 11:50:15,0.25,3.34,0.00,29.97,33.10,35.90,13.65,47.24,1020.35,1999.00,2246.99,2262.60,2580.50,600.04,584.54,33.47,0000 0000 0000 0000 000000
2018-04-20 11:55:16,0.26,3.35,0.00,29.92,33.10,35.89,13.65,47.37,1020.45,1999.00,2243.67,2260.21,2577.74,600.13,584.82,33.52,0000 0000 0000 0000 000000
2018-04-20 12:00:17,0.26,3.37,0.00,29.87,33.10,35.89,13.62,47.37,1020.51,1999.00,2240.09,2257.81,2574.90,599.97,584.71,33.57,0000 0000 0000 0000 000000
2018-04-20 12:05:19,0.22,3.38,0.00,29.82,33.09,35.86,13.65,47.35,1020.52,1999.00,2237.17,2255.66,2572.37,600.26,584.98,33.62,0000 0000 0000 0000 000000
2018-04-20 12:10:20,0.24,3.39,0.00,29.80,33.07,35.87,13.62,47.33,1020.52,1999.00,2234.00,2253.51,2569.84,600.19,585.09,33.67,0000 0000 0000 0000 000000
2018-04-20 12:15:21,0.23,3.40,0.00,29.77,33.07,35.87,13.64,47.31,1020.50,1999.00,2231.00,2251.45,2567.39,599.91,584.86,33.72,0000 0000 0000 0000 000000
2018-04-20 12:20:22,0.21,3.42,0.00,29.73,33.05,35.87,13.71,47.35,1020.52,1999.00,2228.10,2249.43,2565.07,600.03,584.99,33.77,0000 0000 0000 0000 000000
2018-04-20 12:25:24,0.21,3.43,0.00,29.68,33.04,35.96,13.59,47.32,1020.52,1999.00,2225.47,2247.49,2562.90,599.65,584.74,33.82,0000 0000 0000 0000 000000
2018-04-20 12:30:25,0.19,3.44,0.00,29.66,33.02,36.02,13.70,47.37,1020.52,1999.01,2222.97,2245.51,2560.73,600.21,585.36,33.87,0000 0000 0000 0000 000000
2018-04-20 12:35:26,0.26,3.45,0.00,29.62,33.00,35.97,13.73,47.33,1020.52,1999.00,2219.79,2243.24,2558.30,600.05,585.29,33.92,0000 0000 0000 0000 000000
2018-04-20 12:40:28,0.25,3.46,0.00,29.57,32.98,35.95,13.78,47.43,1020.52,1999.03,2216.52,2241.02,2555.68,600.36,585.72,33.97,0000 0000 0000 0000 000000
2018-04-20 12:45:29,0.23,3.47,0.00,29.52,32.97,35.92,13.67,47.43,1020.52,1999.09,2213.46,2239.01,2553.17,600.25,585.67,34.02,0000 0000 0000 0000 000000
2018-04-20 12:50:30,0.19,3.48,0.00,29.49,32.95,35.89,13.68,47.36,1020.52,1999.20,2210.98,2237.29,2551.20,600.51,586.00,34.07,0000 0000 0000 0000 000000
2018-04-20 12:55:31,0.25,3.50,0.00,29.45,32.92,35.85,13.66,47.38,1020.52,1999.51,2208.33,2235.51,2549.02,599.76,585.31,34.13,0000 0000 0000 0000 000000